Weather in Sankt Johann in Tirol

Austria     47°31′19″N   12°25′53″E
В апреле 2022 года жителям России запретили посещать сайт meteo.paraplan.net по решению Генеральной прокуратуры. Аудитория сайта уменьшилась в 10 раз. Владельцы сайта не видят смысла в поддержке погодного сервера в таких условиях. Сайт будет закрыт в октябре.
temp.,
°C
wind,
m/s
gust,
m/s
humid.,
%
clouds,
%
prec.,
mm/h
press.,
hPa
HPBL,
m
30 september, fri
fri3023:00+4wnw1299100 3.0 1007190
02:00+4wsw1199100 4.9 1009256
05:00+4sw1199100 1.0 1009122
08:00+4s1198100 1.1 1011116
11:00+5ese0195100 0.0 1012303
14:00+7n1186100 0.1 1012470
17:00+7nw1194100 0.1 1012146
20:00+6ssw1195100 0.1 101420
1 october, sat
sat123:00+5sse119521 0.0 101411
02:00+4sw119776 0.0 101611
05:00+5s119480 0.0 101628
08:00+7sse118767 0.0 101632
11:00+11nnw1168100 0.0 1014635
14:00+12nnw2166100 0.0 1013884
17:00+9n2386100 0.1 1014335
20:00+7ne1199100 4.8 101849
2 october, sun
sun223:00+7ene0097100 3.8 101918
02:00+6sw1198100 9.4 102133
05:00+6ssw1298100 8.3 102261
08:00+6sw2298100 15.6 1025103
11:00+6ssw2397100 3.0 1026180
14:00+7s1296100 3.7 102693
17:00+7ssw1197100 2.0 102539
20:00+7wnw2299100 5.7 102694
3 october, mon
mon323:00+7se2297100 7.3 102656
02:00+7sse2398100 11.3 102584
05:00+7ssw2296100 1.4 102345
08:00+8s119249 1.5 102323
11:00+9wnw1193100 0.5 102359
14:00+9w1298100 1.9 102384
17:00+8w1199100 3.1 102354
20:00+8sw1199100 6.1 102423
4 october, tue
tue423:00+8ssw119694 0.3 102422
02:00+8sse119487 0.3 102311
05:00+6sse229529 0.0 102317
08:00+6sse21945 0.0 102319
11:00+13e017699 0.0 1021453
14:00+16nw115834 0.0 1019866
17:00+15nnw2271100 0.0 1019232
20:00+9s119499 0.0 102111